When you browse on this site, cookies collect data to enhance your experience and personalize the content and advertising you see.
Visit our Privacy Policy to learn more. By continuing to use the site, you agree to this use of cookies and data.
  • In United Kingdom
  • List of Countries
  • For 7 days
  • Water Temperature
  • Satellite Maps
  • Weather Map
  • Weather Widgets
  • user-avatar
    Login

    Hourly Weather Jamusukro

    Today, 20 February, Wednesday

    Time Temperature Precipitation Wind Pressure Humidity
    00:00 +29°C° 0 mm 1 mps 751 mmHg 84%
    01:00 +29°C° 0 mm 1 mps 751 mmHg 85%
    02:00 +29°C° 0 mm 1 mps 751 mmHg 86%
    03:00 +28°C° 0 mm 1 mps 751 mmHg 87%
    04:00 +28°C° 0 mm 1 mps 751 mmHg 88%
    05:00 +28°C° 0 mm 1 mps 751 mmHg 89%
    06:00 +28°C° 0 mm 1 mps 752 mmHg 90%
    07:00 +30°C° 0 mm 1 mps 752 mmHg 80%
    08:00 +32°C° 0 mm 1 mps 753 mmHg 69%
    09:00 +35°C° 0 mm 2 mps 753 mmHg 59%
    10:00 +37°C° 0 mm 1 mps 753 mmHg 49%
    11:00 +41°C° 0 mm 1 mps 752 mmHg 39%
    12:00 +41°C° 0 mm 0 mps 752 mmHg 29%
    13:00 +43°C° 0 mm 1 mps 751 mmHg 31%
    14:00 +41°C° 0 mm 2 mps 750 mmHg 34%
    15:00 +39°C° 0 mm 2 mps 749 mmHg 36%
    16:00 +37°C° 0 mm 2 mps 749 mmHg 47%
    17:00 +35°C° 0 mm 3 mps 750 mmHg 58%
    18:00 +33°C° 0 mm 3 mps 750 mmHg 69%
    19:00 +31°C° 0 mm 3 mps 750 mmHg 73%
    20:00 +30°C° 0 mm 2 mps 751 mmHg 76%
    21:00 +30°C° 0 mm 2 mps 752 mmHg 80%
    22:00 +29°C° 0 mm 1 mps 752 mmHg 82%
    23:00 +29°C° 0 mm 1 mps 752 mmHg 84%

    Tomorrow, 21 February, Thursday

    Time Temperature Precipitation Wind Pressure Humidity
    00:00 +29°C° 0 mm 1 mps 752 mmHg 87%
    01:00 +29°C° 0 mm 1 mps 752 mmHg 87%
    02:00 +28°C° 0 mm 1 mps 752 mmHg 88%
    03:00 +28°C° 0 mm 1 mps 751 mmHg 89%
    04:00 +29°C° 0.1 mm 1 mps 752 mmHg 88%
    05:00 +29°C° 0.1 mm 1 mps 752 mmHg 88%
    06:00 +29°C° 0.1 mm 1 mps 753 mmHg 87%
    07:00 +30°C° 0.1 mm 1 mps 753 mmHg 82%
    08:00 +31°C° 0.1 mm 1 mps 754 mmHg 77%
    09:00 +32°C° 0.1 mm 2 mps 755 mmHg 71%
    10:00 +34°C° 0 mm 2 mps 754 mmHg 64%
    11:00 +36°C° 0 mm 2 mps 753 mmHg 57%
    12:00 +37°C° 0 mm 2 mps 753 mmHg 50%
    13:00 +37°C° 0.8 mm 2 mps 752 mmHg 50%
    14:00 +37°C° 0.8 mm 2 mps 751 mmHg 51%
    15:00 +37°C° 0.8 mm 3 mps 750 mmHg 51%
    16:00 +36°C° 0 mm 3 mps 751 mmHg 56%
    17:00 +34°C° 0 mm 3 mps 751 mmHg 61%
    18:00 +33°C° 0 mm 3 mps 751 mmHg 66%
    19:00 +31°C° 0 mm 2 mps 752 mmHg 71%
    20:00 +30°C° 0 mm 2 mps 753 mmHg 76%
    21:00 +29°C° 0 mm 2 mps 753 mmHg 81%
    22:00 +29°C° 0 mm 2 mps 753 mmHg 83%
    23:00 +29°C° 0 mm 2 mps 753 mmHg 84%

    Day after tomorrow, 22 February, Friday

    Time Temperature Precipitation Wind Pressure Humidity
    00:00 +29°C° 0 mm 2 mps 753 mmHg 86%
    01:00 +28°C° 0 mm 1 mps 752 mmHg 87%
    02:00 +28°C° 0 mm 1 mps 752 mmHg 88%
    03:00 +28°C° 0 mm 1 mps 751 mmHg 89%
    04:00 +28°C° 0.1 mm 1 mps 752 mmHg 89%
    05:00 +28°C° 0.1 mm 1 mps 752 mmHg 88%
    06:00 +28°C° 0.1 mm 1 mps 752 mmHg 88%
    07:00 +29°C° 0.1 mm 1 mps 753 mmHg 84%
    08:00 +30°C° 0.1 mm 1 mps 754 mmHg 80%
    09:00 +31°C° 0.1 mm 2 mps 754 mmHg 76%
    10:00 +32°C° 0.1 mm 2 mps 754 mmHg 68%
    11:00 +35°C° 0.1 mm 2 mps 753 mmHg 61%
    12:00 +37°C° 0.1 mm 2 mps 752 mmHg 53%
    13:00 +36°C° 0.9 mm 2 mps 752 mmHg 56%
    14:00 +35°C° 0.9 mm 2 mps 751 mmHg 59%
    15:00 +35°C° 0.9 mm 3 mps 750 mmHg 62%
    16:00 +34°C° 0.2 mm 2 mps 750 mmHg 67%
    17:00 +31°C° 0.2 mm 2 mps 751 mmHg 71%
    18:00 +30°C° 0.2 mm 2 mps 751 mmHg 76%
    19:00 +30°C° 0 mm 2 mps 752 mmHg 79%
    20:00 +29°C° 0 mm 1 mps 752 mmHg 83%
    21:00 +28°C° 0 mm 1 mps 753 mmHg 86%
    22:00 +28°C° 0 mm 1 mps 753 mmHg 87%
    23:00 +28°C° 0 mm 1 mps 753 mmHg 89%

    23 February, Saturday

    Time Temperature Precipitation Wind Pressure Humidity
    00:00 +28°C° 0 mm 1 mps 752 mmHg 90%
    01:00 +27°C° 0 mm 1 mps 752 mmHg 91%
    02:00 +27°C° 0 mm 1 mps 751 mmHg 92%
    03:00 +27°C° 0 mm 1 mps 751 mmHg 93%
    04:00 +27°C° 0 mm 1 mps 751 mmHg 92%
    05:00 +27°C° 0 mm 1 mps 751 mmHg 91%
    06:00 +27°C° 0 mm 1 mps 752 mmHg 91%
    07:00 +29°C° 0.1 mm 1 mps 752 mmHg 83%
    08:00 +30°C° 0.1 mm 1 mps 753 mmHg 76%
    09:00 +32°C° 0.1 mm 2 mps 753 mmHg 68%
    10:00 +34°C° 0.1 mm 2 mps 753 mmHg 65%
    11:00 +34°C° 0.1 mm 2 mps 752 mmHg 61%
    12:00 +35°C° 0.1 mm 3 mps 751 mmHg 57%
    13:00 +36°C° 0.5 mm 3 mps 751 mmHg 56%
    14:00 +36°C° 0.5 mm 2 mps 750 mmHg 55%
    15:00 +36°C° 0.5 mm 2 mps 749 mmHg 55%
    16:00 +34°C° 0.5 mm 2 mps 750 mmHg 62%
    17:00 +31°C° 0.5 mm 2 mps 750 mmHg 69%
    18:00 +30°C° 0.5 mm 1 mps 751 mmHg 76%
    19:00 +29°C° 0.1 mm 1 mps 751 mmHg 79%
    20:00 +29°C° 0.1 mm 1 mps 752 mmHg 82%
    21:00 +28°C° 0.1 mm 1 mps 752 mmHg 85%
    22:00 +28°C° 0 mm 1 mps 752 mmHg 87%
    23:00 +28°C° 0 mm 1 mps 751 mmHg 88%

    24 February, Sunday

    Time Temperature Precipitation Wind Pressure Humidity
    00:00 +27°C° 0 mm 1 mps 751 mmHg 90%
    01:00 +27°C° 0 mm 1 mps 750 mmHg 91%
    02:00 +27°C° 0 mm 1 mps 750 mmHg 93%
    03:00 +24°C° 0 mm 0 mps 750 mmHg 94%
    04:00 +24°C° 0 mm 0 mps 750 mmHg 94%
    05:00 +24°C° 0 mm 0 mps 750 mmHg 94%
    06:00 +24°C° 0 mm 0 mps 751 mmHg 95%
    07:00 +28°C° 0 mm 1 mps 751 mmHg 83%
    08:00 +31°C° 0 mm 1 mps 752 mmHg 72%
    09:00 +34°C° 0 mm 2 mps 752 mmHg 61%
    10:00 +35°C° 0.1 mm 2 mps 752 mmHg 56%
    11:00 +37°C° 0.1 mm 2 mps 751 mmHg 51%
    12:00 +38°C° 0.1 mm 2 mps 750 mmHg 45%
    13:00 +37°C° 1.9 mm 2 mps 750 mmHg 52%
    14:00 +35°C° 1.9 mm 2 mps 749 mmHg 58%
    15:00 +34°C° 1.9 mm 2 mps 749 mmHg 64%
    16:00 +32°C° 0.9 mm 2 mps 749 mmHg 70%
    17:00 +30°C° 0.9 mm 2 mps 750 mmHg 76%
    18:00 +29°C° 0.9 mm 1 mps 750 mmHg 82%
    19:00 +29°C° 0 mm 1 mps 750 mmHg 85%
    20:00 +28°C° 0 mm 1 mps 751 mmHg 87%
    21:00 +28°C° 0 mm 1 mps 751 mmHg 90%
    22:00 +28°C° 0 mm 1 mps 751 mmHg 91%
    23:00 +27°C° 0 mm 1 mps 750 mmHg 92%

    25 February, Monday

    Time Temperature Precipitation Wind Pressure Humidity
    00:00 +27°C° 0 mm 1 mps 750 mmHg 93%
    01:00 +27°C° 0 mm 1 mps 750 mmHg 94%
    02:00 +27°C° 0 mm 1 mps 749 mmHg 95%
    03:00 +27°C° 0 mm 1 mps 749 mmHg 96%
    04:00 +25°C° 0 mm 0 mps 750 mmHg 96%
    05:00 +24°C° 0 mm 0 mps 750 mmHg 96%
    06:00 +24°C° 0 mm 0 mps 750 mmHg 97%
    07:00 +28°C° 0.1 mm 1 mps 751 mmHg 87%
    08:00 +30°C° 0.1 mm 1 mps 751 mmHg 77%
    09:00 +32°C° 0.1 mm 2 mps 752 mmHg 68%
    10:00 +33°C° 3.9 mm 1 mps 751 mmHg 65%
    11:00 +33°C° 3.9 mm 1 mps 750 mmHg 62%
    12:00 +34°C° 3.9 mm 1 mps 750 mmHg 60%
    13:00 +34°C° 0.2 mm 1 mps 749 mmHg 60%
    14:00 +34°C° 0.2 mm 2 mps 749 mmHg 60%
    15:00 +34°C° 0.2 mm 2 mps 748 mmHg 60%
    16:00 +32°C° 0 mm 2 mps 749 mmHg 64%
    17:00 +31°C° 0 mm 1 mps 749 mmHg 69%
    18:00 +30°C° 0 mm 1 mps 750 mmHg 73%
    19:00 +30°C° 0 mm 1 mps 750 mmHg 76%
    20:00 +29°C° 0 mm 1 mps 751 mmHg 78%
    21:00 +29°C° 0 mm 1 mps 751 mmHg 81%
    22:00 +28°C° 0 mm 1 mps 751 mmHg 83%
    23:00 +28°C° 0 mm 1 mps 751 mmHg 85%
    Show more